Regional Weather Roundup
Issued by NWS

Home | Current Version | Previous Version | Text Only | Print | Product List | Glossary On
Versions: 1 2 3 4 5 6 7 8 9 10 11 12 13 14 15 16 17 18 19 20 21 22 23 24 25 26 27
000
ASUS45 KREV 180810
RWRNV
NEVADA REGIONAL WEATHER ROUNDUP
NATIONAL WEATHER SERVICE RENO NV
1200 AM PST SAT NOV 18 2017

NOTE: "FAIR" INDICATES FEW OR NO CLOUDS BELOW 12,000 FEET WITH NO
SIGNIFICANT WEATHER AND/OR OBSTRUCTIONS TO VISIBILITY.

NVZ001-003-004-180900-
WESTERN NEVADA

CITY           SKY/WX    TMP DP  RH WIND       PRES   REMARKS
RENO           PTCLDY    32  23  69 CALM      30.33S
CARSON CITY    FAIR      28  23  80 CALM      30.34S
MINDEN         FAIR      23  21  93 E3        30.33S
SLIDE MTN        N/A     25  25 100 MISG        N/A
PYRAMID LAKE     N/A     37 N/A N/A S7          N/A
FALLON         CLEAR     27  17  66 S5        30.35R
LOVELOCK       CLEAR     14  11  87 S3        30.36S
HAWTHORNE        N/A     30  25  80 MISG      30.36R
$$

NVZ002-CAZ072-073-180900-
NORTHERN AND CENTRAL SIERRA

CITY           SKY/WX    TMP DP  RH WIND       PRES   REMARKS
S. LAKE TAHOE  PTCLDY    24  21  88 S3        30.28S
TRUCKEE        PTCLDY    21  19  93 CALM      30.31R
SQUAW VLY 8000   N/A     21  19  93 CALM        N/A
SUSANVILLE     CLEAR    N/A N/A N/A W3        30.33R
BLUE CANYON    CLEAR     39  19  44 E5        30.23S
MAMMOTH LAKES  FAIR      23  20  89 N3        30.31S
$$

NVZ030-031-036-180900-
NORTHERN NEVADA

CITY           SKY/WX    TMP DP  RH WIND       PRES   REMARKS
ELKO           PTCLDY    22  18  85 SE3       30.38R
WINNEMUCCA     PTCLDY    25  20  81 E3        30.37R
WENDOVER       CLEAR     30  19  63 W8        30.38R
$$

NVZ035-037-180900-
CENTRAL NEVADA

CITY           SKY/WX    TMP DP  RH WIND       PRES   REMARKS
ELY            CLOUDY    11   8  88 S10       30.36R WCI  -3
EUREKA           N/A     19  14  81 S7        30.37R
$$

NVZ013-014-180900-
SOUTH CENTRAL NEVADA

CITY           SKY/WX    TMP DP  RH WIND       PRES   REMARKS
TONOPAH        CLOUDY    26  12  55 N14       30.36R
$$

NVZ017-020-022-180900-
SOUTHERN NEVADA

CITY           SKY/WX    TMP DP  RH WIND       PRES   REMARKS
LAS VEGAS      CLEAR     56  13  18 N17G35    30.25R
N. LAS VEGAS   CLEAR     53  12  19 N24G31    30.24R
NELLIS AFB     MOCLDY    55  16  21 N30G40    30.24R
HENDERSON      CLEAR     53  13  20 N14G20    30.26R
MERCURY        CLEAR     44  15  31 NE13      30.30R
$$




USA.gov is the U.S. government's official web portal to all federal, state and local government web resources and services.